N7QNM-13 Weather Reports


time (UTC)temp
F
wind
direction
speed
knots
gust
knots
rain 1hr
in
rain 24hr
in
rain mn
in
humidity
%
barometer
mb
20260905045113 58 196 0.9 1.7 0.00 0.00 0.00 67 1014.9
20260905044114 59 254 0.9 1.7 0.00 0.00 0.00 66 1014.9
20260905043114 59 198 0.9 2.6 0.00 0.00 0.00 64 1014.9
20260905042115 60 186 0.0 1.7 0.00 0.00 0.00 64 1014.9
20260905041114 60 256 2.6 5.2 0.00 0.00 0.00 63 1015.0
20260905040114 61 261 1.7 3.5 0.00 0.00 0.00 63 1014.9
20260905035114 61 265 2.6 3.5 0.00 0.00 0.00 62 1014.8
20260905034115 61 258 3.5 6.1 0.00 0.00 0.00 62 1014.8
20260905033136 61 258 3.5 6.1 0.00 0.00 0.00 61 1014.8
20260905032116 61 248 2.6 4.3 0.00 0.00 0.00 61 1014.8
20260905031116 61 244 2.6 4.3 0.00 0.00 0.00 60 1014.7
20260905030115 61 197 1.7 2.6 0.00 0.00 0.00 59 1014.6
20260905025115 62 234 2.6 3.5 0.00 0.00 0.00 57 1014.4
20260905024115 62 264 2.6 4.3 0.00 0.00 0.00 56 1014.3
20260905023116 62 254 3.5 5.2 0.00 0.00 0.00 55 1014.3
20260905022115 62 256 4.3 5.2 0.00 0.00 0.00 57 1014.2
20260905021135 63 254 2.6 4.3 0.00 0.00 0.00 58 1014.1
20260905020117 64 263 3.5 5.2 0.00 0.00 0.00 57 1014.0
20260905015116 65 270 4.3 7.8 0.00 0.00 0.00 57 1013.9
20260905014136 66 260 7.0 9.6 0.00 0.00 0.00 55 1013.7
20260905013116 69 269 7.0 13.0 0.00 0.00 0.00 51 1013.5
20260905012116 71 270 1.7 2.6 0.00 0.00 0.00 44 1013.2
20260905011118 72 87 0.9 1.7 0.00 0.00 0.00 42 1013.0
20260905010116 73 53 3.5 5.2 0.00 0.00 0.00 38 1012.9
20260905005018 74 354 3.5 5.2 0.00 0.00 0.00 39 1012.9
20260905004118 72 338 2.6 4.3 0.00 0.00 0.00 40 1012.8
20260905003116 72 19 3.5 6.1 0.00 0.00 0.00 41 1012.8
20260905002118 73 83 5.2 6.1 0.00 0.00 0.00 39 1012.7
20260905001117 72 76 4.3 6.1 0.00 0.00 0.00 39 1012.7
20260905000017 71 54 2.6 3.5 0.00 0.00 0.00 44 1012.7
20260904235017 72 10 2.6 4.3 0.00 0.00 0.00 41 1012.6
20260904234017 72 37 4.3 5.2 0.00 0.00 0.00 42 1012.6
20260904233119 74 9 4.3 6.1 0.00 0.00 0.00 40 1012.6
20260904232118 72 65 5.2 8.7 0.00 0.00 0.00 40 1012.6
20260904231139 71 35 2.6 3.5 0.00 0.00 0.00 42 1012.7
20260904230019 72 50 1.7 4.3 0.00 0.00 0.00 43 1012.7
20260904225018 72 59 3.5 6.1 0.00 0.00 0.00 42 1012.7
20260904224020 73 78 3.5 7.0 0.00 0.00 0.00 42 1012.7
20260904223018 74 41 4.3 6.1 0.00 0.00 0.00 41 1012.7
20260904222018 74 68 2.6 6.1 0.00 0.00 0.00 41 1012.8
20260904221019 73 47 5.2 8.7 0.00 0.00 0.00 42 1012.8
20260904220020 73 80 2.6 4.3 0.00 0.00 0.00 42 1012.8
20260904215019 73 10 6.1 10.4 0.00 0.00 0.00 42 1012.8
20260904214019 73 356 3.5 5.2 0.00 0.00 0.00 42 1012.8
20260904213020 73 41 4.3 7.0 0.00 0.00 0.00 43 1012.7
20260904212019 73 61 3.5 6.1 0.00 0.00 0.00 43 1012.7
20260904211019 73 40 4.3 7.0 0.00 0.00 0.00 42 1012.7
20260904210019 73 36 3.5 6.1 0.00 0.00 0.00 43 1012.7
20260904205101 72 28 5.2 9.6 0.00 0.00 0.00 44 1012.7
20260904204019 73 39 4.3 7.0 0.00 0.00 0.00 42 1012.8
20260904203020 71 37 4.3 7.0 0.00 0.00 0.00 45 1012.9
20260904202020 70 41 4.3 6.1 0.00 0.00 0.00 46 1013.0
20260904201020 69 50 3.5 5.2 0.00 0.00 0.00 48 1013.0
20260904200020 69 5 2.6 3.5 0.00 0.00 0.00 48 1013.0
20260904195020 70 43 3.5 7.0 0.00 0.00 0.00 47 1013.1
20260904194022 69 43 4.3 6.1 0.00 0.00 0.00 48 1013.1
20260904193020 70 56 2.6 7.0 0.00 0.00 0.00 48 1013.2
20260904192022 69 351 2.6 4.3 0.00 0.00 0.00 48 1013.3
20260904191020 69 59 1.7 2.6 0.00 0.00 0.00 48 1013.4
20260904190022 69 19 4.3 6.1 0.00 0.00 0.00 49 1013.5
20260904185021 69 11 1.7 2.6 0.00 0.00 0.00 47 1013.7
20260904184021 70 46 1.7 3.5 0.00 0.00 0.00 45 1013.6
20260904183021 71 41 2.6 5.2 0.00 0.00 0.00 44 1013.6
20260904182021 71 270 2.6 3.5 0.00 0.00 0.00 43 1013.5
20260904181023 70 274 1.7 2.6 0.00 0.00 0.00 43 1013.4
20260904180043 70 66 1.7 4.3 0.00 0.00 0.00 45 1013.4
20260904175022 69 300 3.5 5.2 0.00 0.00 0.00 47 1013.2
20260904174021 69 336 3.5 4.3 0.00 0.00 0.00 46 1013.2
20260904173022 69 284 2.6 4.3 0.00 0.00 0.00 47 1013.2
20260904172044 68 291 0.9 2.6 0.00 0.00 0.00 50 1013.2
20260904171023 66 307 2.6 3.5 0.00 0.00 0.00 54 1013.4
20260904170022 64 280 1.7 3.5 0.00 0.00 0.00 56 1013.3
20260904165024 63 270 2.6 3.5 0.00 0.00 0.00 58 1013.3
20260904164022 63 300 3.5 5.2 0.00 0.00 0.00 60 1013.4
20260904163023 62 279 2.6 4.3 0.00 0.00 0.00 62 1013.4
20260904162023 61 261 3.5 5.2 0.00 0.00 0.00 63 1013.4
20260904161022 60 257 2.6 4.3 0.00 0.00 0.00 66 1013.4
20260904160023 58 262 2.6 4.3 0.00 0.00 0.00 72 1013.4
20260904155024 55 296 1.7 2.6 0.00 0.00 0.00 78 1013.3
20260904154025 54 272 2.6 3.5 0.00 0.00 0.00 81 1013.4
20260904153023 53 296 1.7 2.6 0.00 0.00 0.00 84 1013.3
20260904152025 53 0.0 0.0 0.00 0.00 0.00 86 1013.2
20260904151025 53 319 0.9 1.7 0.00 0.00 0.00 88 1013.2
20260904150023 53 257 1.7 1.7 0.00 0.00 0.00 89 1013.1
20260904145023 52 276 0.9 1.7 0.00 0.00 0.00 90 1013.2
20260904144045 52 270 1.7 3.5 0.00 0.00 0.00 91 1013.1
20260904143024 51 263 1.7 4.3 0.00 0.00 0.00 92 1013.0
20260904142025 51 270 0.0 1.7 0.00 0.00 0.00 92 1012.8
20260904141024 50 266 1.7 2.6 0.00 0.00 0.00 92 1012.7
20260904140026 49 235 1.7 2.6 0.00 0.00 0.00 92 1012.4
20260904135024 48 0.0 0.0 0.00 0.00 0.00 91 1012.3
20260904134026 48 0.0 0.0 0.00 0.00 0.00 91 1012.1
20260904133024 48 0.0 0.0 0.00 0.00 0.00 91 1011.9
20260904132045 48 0.0 0.0 0.00 0.00 0.00 91 1011.9
20260904131026 48 0.0 0.0 0.00 0.00 0.00 91 1011.8
20260904130026 48 0.0 0.0 0.00 0.00 0.00 91 1011.7
20260904125026 48 0.0 0.0 0.00 0.00 0.00 90 1011.6
20260904124025 48 0.0 0.0 0.00 0.00 0.00 90 1011.5
20260904123027 48 0.0 0.0 0.00 0.00 0.00 90 1011.5
20260904122025 48 0.0 0.0 0.00 0.00 0.00 90 1011.3
20260904121026 48 0.0 0.0 0.00 0.00 0.00 90 1011.3
20260904120027 48 0.0 0.0 0.00 0.00 0.00 90 1011.2
20260904115026 48 0.0 0.0 0.00 0.00 0.00 90 1011.1
20260904114026 47 0.0 0.0 0.00 0.00 0.00 89 1011.1
20260904113026 47 0.0 0.0 0.00 0.00 0.00 89 1011.0
20260904112028 47 0.0 0.0 0.00 0.00 0.00 89 1011.0
20260904111026 47 0.0 0.0 0.00 0.00 0.00 89 1010.9
20260904110026 46 0.0 0.0 0.00 0.00 0.00 88 1010.8
20260904105028 45 0.0 0.0 0.00 0.00 0.00 88 1010.7
20260904104028 45 0.0 0.0 0.00 0.00 0.00 88 1010.6
20260904103028 45 0.0 0.0 0.00 0.00 0.00 87 1010.6
20260904102026 45 0.0 0.0 0.00 0.00 0.00 87 1010.4
20260904101048 45 0.0 0.0 0.00 0.00 0.00 86 1010.3
20260904100027 45 0.0 0.0 0.00 0.00 0.00 86 1010.2
20260904095049 45 0.0 0.0 0.00 0.00 0.00 85 1010.1
20260904094029 45 0.0 0.0 0.00 0.00 0.00 85 1010.1
20260904093029 46 0.0 0.0 0.00 0.00 0.00 84 1010.1
20260904092047 46 0.0 0.0 0.00 0.00 0.00 84 1010.1
20260904091028 47 0.0 0.0 0.00 0.00 0.00 84 1010.0
20260904090028 48 0.0 0.0 0.00 0.00 0.00 83 1010.0
20260904085027 48 0.0 0.0 0.00 0.00 0.00 83 1010.1
20260904084030 48 184 1.7 2.6 0.00 0.00 0.00 83 1010.1
20260904083032 48 173 1.7 2.6 0.00 0.00 0.00 83 1010.1
20260904082049 48 198 0.9 1.7 0.00 0.00 0.00 82 1010.1
20260904081028 48 180 0.0 1.7 0.00 0.00 0.00 81 1009.9
20260904080028 49 286 0.9 2.6 0.00 0.00 0.00 81 1009.9
20260904075029 49 261 0.9 2.6 0.00 0.00 0.00 80 1010.0
20260904074030 50 0.0 0.0 0.00 0.00 0.00 79 1009.9
20260904073028 51 0.0 0.0 0.00 0.00 0.00 78 1009.9
20260904072030 51 0.0 0.0 0.00 0.00 0.00 78 1009.9
20260904071029 51 0.0 0.0 0.00 0.00 0.00 77 1009.9
20260904070030 51 0.0 0.0 0.00 0.00 0.00 75 1009.8
20260904065034 51 90 0.0 0.9 0.00 0.00 0.00 72 1009.8
20260904064031 52 113 0.0 0.9 0.00 0.00 0.00 70 1009.7
20260904063029 53 0.0 0.0 0.00 0.00 0.00 69 1009.8
20260904062051 53 180 1.7 2.6 0.00 0.00 0.00 69 1009.7
20260904060029 54 178 1.7 2.6 0.00 0.01 0.00 67 1009.7
20260904055050 55 154 1.7 3.5 0.00 0.01 0.00 65 1009.6
20260904054030 56 0.0 0.0 0.00 0.02 0.00 62 1009.6
20260904053030 57 188 2.6 3.5 0.00 0.02 0.00 60 1009.6
20260904052052 58 72 1.7 2.6 0.00 0.02 0.00 59 1009.7
20260904051030 59 167 0.9 1.7 0.00 0.02 0.00 55 1009.6
20260904050030 61 226 1.7 2.6 0.00 0.02 0.00 54 1009.7